Regional Weather Roundup
Issued by NWS

Home | Current Version | Previous Version | Graphics & Text | Print | Product List | Glossary On
Versions: 1 2 3 4 5 6 7 8 9 10 11 12 13 14 15 16 17 18 19 20 21 22 23 24 25 26 27 28 29 30 31 32 33 34 35 36 37 38 39 40 41 42 43 44 45 46 47 48 49 50
000
ASUS43 KMPX 240210
RWRMN
WEATHER ROUNDUP FOR MINNESOTA
NATIONAL WEATHER SERVICE TWIN CITIES/CHANHASSEN MN
900 PM CDT THU MAR 23 2017


NOTE: "FAIR" INDICATES FEW OR NO CLOUDS BELOW 12,000 FEET WITH NO
SIGNIFICANT WEATHER AND/OR OBSTRUCTIONS TO VISIBILITY. N/A MEANS
CURRENT SKY AND/OR WEATHER CONDITIONS ARE NOT AVAILABLE.

MNZ060>063-068>070-240300-
   Twin Cities Metro

CITY           SKY/WX    TMP DP  RH WIND       PRES   REMARKS
TWIN CITIES    CLOUDY    39  34  82 SE12      29.82F
ST PAUL        CLOUDY    39  36  89 SE9       29.84F
CRYSTAL        CLOUDY    38  34  85 E7        29.82F
BLAINE           N/A     39  39 100 SE3       29.84F FOG
LAKEVILLE      CLOUDY    37  37 100 SE9       29.81F
EDEN PRAIRIE   CLOUDY    40  36  86 E7        29.80F
SOUTH ST PAUL  CLOUDY    39  35  85 SE7       29.83F
LAKE ELMO      CLOUDY    37  36  93 SE6       29.85F
$$
MNZ001>005-007-008-013>017-022>024-027-028-240300-
   Northwest Minnesota

CITY           SKY/WX    TMP DP  RH WIND       PRES   REMARKS
BEMIDJI        CLOUDY    33  32  98 CALM      29.85R
HALLOCK        CLOUDY    36  34  93 S6        29.85R
ROSEAU         MOCLDY    36  30  80 CALM      29.85R
WARROAD        CLOUDY    36  32  87 CALM      29.84R
THIEF RVR FALL CLOUDY   N/A N/A N/A W5        29.86R
CROOKSTON      MIX PCPN  34  34 100 SW3       29.87R
FOSSTON        CLOUDY    32  30  93 CALM      29.85R
DETROIT LAKES  LGT RAIN  34  32  93 SE5       29.84R WCI  30
MOORHEAD       CLOUDY    34  34 100 E3        29.85S FOG
PARK RAPIDS    LGT RAIN  34  31  88 SE3       29.83R
MAHNOMEN       CLOUDY    33  32  96 CALM      29.85R
$$
MNZ006-009>011-018-025>026-240300-
   North Central Minnesota

CITY           SKY/WX    TMP DP  RH WIND       PRES   REMARKS
BAUDETTE       CLOUDY    34  32  92 CALM      29.83R
FLAG ISLAND    CLOUDY    36  32  87 SW5       29.83R
INTL FALLS     CLOUDY    33  31  92 CALM      29.84S
WASKISH        CLOUDY    36  34  93 CALM      29.85R
BIG FORK       MIX PCPN  34  32  93 S3        29.85R
LONGVILLE      MIX PCPN  32  32 100 CALM      29.85R
GRAND RAPIDS   MIX PCPN  32  31  96 S8        29.87S FOG     WCI  25
CRANE LAKE     CLOUDY    30  30 100 CALM      29.88R FOG
ORR            CLOUDY    32  28  86 CALM      29.83R
COOK           MIX PCPN  32  30  93 S6        29.84S WCI  26
WALKER         DRIZZLE   32  32  98 SE5       29.84R WCI  28
$$
MNZ012-019>021-037-240300-
   Northeast Minnesota

CITY           SKY/WX    TMP DP  RH WIND       PRES   REMARKS
DULUTH         LGT RAIN  32  30  92 S10       29.88F FOG     WCI  24
ELY            MIX PCPN  32  30  93 S3        29.85F
HIBBING        FRZ RAIN  31  31 100 SE7       29.86F FOG     WCI  24
EVELETH        MIX PCPN  32  31  94 S3        29.88S
DULUTH HARBOR  MIX PCPN  34  32  93 CALM      29.93F
TWO HARBORS    DRIZZLE   36  30  80 CALM      29.89F
SILVER BAY     HVY RAIN  34  32  93 CALM      29.89F
GRAND MARAIS     N/A     33  32  96 CALM      29.92R
G MARAIS ARPRT MIX PCPN  28  25  86 S5        29.86F WCI  23
$$
MNZ029>031-032-039>041-046>048-054>057-064-240300-
   West Central Minnesota

CITY           SKY/WX    TMP DP  RH WIND       PRES   REMARKS
FERGUS FALLS   CLOUDY    34  34 100 CALM      29.87R FOG
WHEATON        CLOUDY    36  34  93 E5        29.83R FOG
MORRIS         CLOUDY    36  34  93 SE9       29.79S FOG
ALEXANDRIA     CLOUDY    34  33  96 SE7       29.81S FOG     WCI  28
ELBOW LAKE     CLOUDY    33  33 100 CALM      29.82R FOG
WADENA         CLOUDY    32  32 100 SE12      29.80F FOG     WCI  23
GLENWOOD       MIX PCPN  34  34 100 E8        29.81S WCI  27
APPLETON       DRIZZLE   36  36 100 CALM      29.80R
BENSON         DRIZZLE   37  34  87 E6        29.82R
ORTONVILLE     DRIZZLE   36  34  93 E6        29.79R
MADISON        DRIZZLE   39  39 100 E5        29.79R
WILLMAR        CLOUDY    36  36 100 E9        29.80S FOG
$$
MNZ033>034-036-042>043-049>051-058-059-240300-
   Central Minnesota

CITY           SKY/WX    TMP DP  RH WIND       PRES   REMARKS
ST CLOUD       CLOUDY    35  35 100 E5        29.84S FOG     WCI  31
SAUK CENTRE    RAIN      33  33  99 E5        29.83R WCI  29
PAYNESVILLE    DRIZZLE   34  35 100 E6        29.82R WCI  29
AITKIN         CLOUDY    36  30  80 SE7       29.84F FOG
PINE RIVER     DRIZZLE   34  34 100 CALM      29.88R
BRAINERD       CLOUDY    33  32  96 E3        29.86S FOG
STAPLES        CLOUDY    32  32 100 E3        29.84S FOG
LONG PRAIRIE   CLOUDY    32  32 100 NE5       29.83S FOG     WCI  27
LITTLE FALLS   MIX PCPN  34  32  93 CALM      29.86R
LITCHFIELD     DRIZZLE   36  36 100 E6        29.81S
BUFFALO        CLOUDY    36  34  94 NE5       29.83F FOG
MAPLE LAKE     DRIZZLE   37  36  98 E5        29.83F
HUTCHINSON     DRIZZLE   37  36  98 NE6       29.81S
$$
MNZ037-044-045-052-053-240300-
   East Central Minnesota

CITY           SKY/WX    TMP DP  RH WIND       PRES   REMARKS
PRINCETON      DRIZZLE   37  36  93 E5        29.85F
MORA           DRIZZLE   32  32 100 CALM      29.89S
CAMBRIDGE      DRIZZLE   37  32  81 CALM      29.85S
RUSH CITY      DRIZZLE   35  33  94 CALM      29.88S
MOOSE LAKE     DRIZZLE   32  32 100 CALM      29.88S
HINCKLEY       DRIZZLE   34  32  93 NE3       29.89S
CLOQUET        MIX PCPN  32  30  93 SE6       29.88F WCI  26
MCGREGOR       CLOUDY    32  32 100 SE9       29.86F WCI  24
$$
MNZ071>073-080-081-089-090-097-098-240300-
   Southwest Minnesota

CITY           SKY/WX    TMP DP  RH WIND       PRES   REMARKS
MONTEVIDEO     DRIZZLE   36  36 100 SE8       29.79S
GRANITE FALLS  CLOUDY    38  37  93 E5        29.80R FOG
CANBY          CLOUDY    37  37  99 CALM      29.78R FOG
MARSHALL       LGT RAIN  37  36  93 E7        29.78R
REDWOOD FALLS  LGT RAIN  39  34  82 E6        29.78R
OLIVIA         CLOUDY    36  34  93 E8        29.79R
PIPESTONE      DRIZZLE   39  36  87 E5        29.72R
WINDOM         MOCLDY    41  36  81 SE12      29.74R
WORTHINGTON    CLOUDY    40  36  86 SE14      29.71S
JACKSON        CLOUDY    39  34  81 SE12      29.75R
TRACY          CLOUDY    39  37  91 E3        29.76R
SLAYTON        CLOUDY    38  36  90 CALM      29.74S
$$
MNZ065>067-074>077-082>085-091>093-240300-
   South Central Minnesota

CITY           SKY/WX    TMP DP  RH WIND       PRES   REMARKS
NEW ULM        CLOUDY    39  34  81 E6        29.78R
ST JAMES       CLOUDY    39  36  87 E8        29.77R
FAIRMONT       CLOUDY    40  35  83 SE14      29.77R
GLENCOE        CLOUDY    38  38  99 E5        29.80S
FARIBAULT      CLOUDY    39  37  93 SE9       29.80F
OWATONNA       CLOUDY    39  36  87 SE13      29.80F
WASECA         CLOUDY    39  36  87 SE15      29.80S
ALBERT LEA     MOCLDY    37  37 100 E10       29.82F
$$
MNZ078>079-086>088-094>096-240300-
   Southeast Minnesota

CITY           SKY/WX    TMP DP  RH WIND       PRES   REMARKS
ROCHESTER      CLOUDY    37  35  92 SE14      29.85F
RED WING       CLOUDY    41  34  75 SE9       29.84F
STANTON        CLOUDY    41  36  83 SE8       29.81F
DODGE CENTER   CLOUDY    39  36  87 SE15      29.82F
WINONA         CLOUDY    37  34  87 SE6       29.91R
AUSTIN         CLOUDY    37  36  93 SE9       29.82F
PRESTON        CLOUDY    37  34  91 E7        29.90R
$$
ABBREVIATIONS USED IN REMARKS
   TC - TEMPERATURES IN CELSIUS
  WCI - WIND CHILL INDEX
   HX - HEAT INDEX
  VSB - VISIBILITY
$$



USA.gov is the U.S. government's official web portal to all federal, state and local government web resources and services.